DateTimeUTC,F1_A11,F1_S11,BsB_S11,BsG_S11,BsR_S11,BbsB_S11,BbsG_S11,BbsR_S11,BaB_A11,BaG_A11,BaR_A11,Tu_S11,T_S11,Uu_S11,U_S11,P_S11,T1_A11
2021-02-09T13:00:00Z,00000200,21000000,,,,,,,-000.13,0000.03,-000.32,16.0,23.4,,00.0,0653.1,31.0
2021-02-09T13:01:00Z,00000200,21000000,,,,,,,-000.52,-000.24,-000.45,16.0,23.4,,00.0,0653.1,30.9
2021-02-09T13:02:00Z,00000200,21000000,,,,,,,0000.09,-000.30,0000.12,16.0,23.4,,00.0,0653.1,30.9
2021-02-09T13:03:00Z,00000200,61000000,,,,,,,-000.71,-000.87,-000.72,16.0,23.4,,00.0,0653.1,30.9
2021-02-09T13:04:00Z,00000200,41000000,0001.02,0000.75,-000.04,-000.13,0000.33,0000.03,-000.31,-000.14,-000.22,16.0,23.1,,00.0,0654.4,30.9
2021-02-09T13:05:00Z,00000200,01000000,0001.09,0000.61,-000.02,0000.04,0000.31,-000.12,0000.05,-000.52,0000.16,16.0,23.1,,00.0,0654.5,30.9
2021-02-09T13:06:00Z,00000200,01000000,0001.82,0000.82,0000.35,0000.39,0000.23,0000.17,0000.14,0000.39,0000.06,16.0,23.0,,00.0,0654.4,30.9
2021-02-09T13:07:00Z,00000200,01000000,0001.74,0000.73,0000.30,0000.20,0000.12,0000.10,0000.90,0000.88,0000.50,16.0,23.1,,00.0,0654.3,30.9
2021-02-09T13:08:00Z,00000200,01000000,0000.72,0000.63,0000.29,0000.66,0000.19,-000.02,0000.61,0001.01,0000.65,16.1,23.1,,00.0,0654.2,30.9
2021-02-09T13:09:00Z,00000200,01000000,0001.61,0000.79,0000.14,0000.13,0000.17,-000.14,0000.93,0000.50,0000.56,16.2,23.1,,00.0,0654.2,30.9
2021-02-09T13:10:00Z,00000200,01000000,0001.08,0000.88,0000.06,0000.06,0000.44,0000.05,0000.75,0001.04,0000.51,16.2,23.1,,00.0,0654.1,31.0
2021-02-09T13:11:00Z,00000200,01000000,0001.14,0000.88,0000.07,0000.04,0000.27,0000.10,0000.68,0000.19,0000.32,16.3,23.2,,00.0,0654.0,31.0
2021-02-09T13:12:00Z,00000200,01000000,0001.67,0000.75,0000.06,0000.37,0000.53,-000.20,0000.90,0000.89,0000.84,16.3,23.2,,00.0,0653.9,31.0
2021-02-09T13:13:00Z,00000200,01000000,0001.09,0001.01,0000.24,0000.11,0000.29,-000.11,0000.65,0000.43,0000.21,16.4,23.2,,00.0,0653.9,30.9
2021-02-09T13:14:00Z,00000200,01000000,0001.35,0000.69,0000.35,0000.31,0000.21,0000.36,0000.26,0000.12,-000.17,16.3,23.2,,00.0,0654.0,30.9
2021-02-09T13:15:00Z,00000200,01000000,0001.21,0000.57,0000.20,0000.20,0000.46,0000.16,0000.10,0000.60,0000.34,16.3,23.2,,00.0,0654.0,30.9
2021-02-09T13:16:00Z,00000200,01000000,0001.62,0000.58,0000.13,0000.02,0000.26,-000.04,0000.23,0000.10,0000.15,16.2,23.1,,00.0,0654.1,30.9
2021-02-09T13:17:00Z,00000200,01000000,0001.24,0000.98,0000.26,0000.52,0000.21,0000.22,0000.51,0000.51,0000.40,16.1,23.1,,00.0,0654.0,30.9
2021-02-09T13:18:00Z,00000200,01000000,0000.76,0000.80,0000.06,0000.33,0000.26,-000.09,0001.03,0000.68,0000.68,16.1,23.1,,00.0,0654.0,30.9
2021-02-09T13:19:00Z,00000200,01000000,0001.41,0000.79,0000.39,0000.15,-000.18,0000.04,0000.91,0000.21,0000.46,16.0,23.1,,00.0,0654.0,30.9
2021-02-09T13:20:00Z,00000200,01000000,0001.43,0000.63,0000.56,-000.67,0000.32,0000.39,0000.27,0000.92,0000.30,16.0,23.0,,00.0,0654.0,30.9
2021-02-09T13:21:00Z,00000200,01000000,0001.00,0000.59,0000.14,-000.17,0000.27,-000.11,0000.63,0000.40,0000.63,16.0,23.0,,00.0,0654.0,30.9
2021-02-09T13:22:00Z,00000200,01000000,0002.02,0000.49,0000.10,-000.12,0000.16,-000.11,0001.27,0000.83,0000.59,16.1,23.0,,00.0,0653.9,30.9
2021-02-09T13:23:00Z,00000200,01000000,0001.28,0000.87,0000.04,0000.11,0000.19,0000.01,0000.96,0001.17,0000.65,16.1,23.1,,00.0,0653.9,30.9
2021-02-09T13:24:00Z,00000200,01000000,0000.99,0000.78,0000.17,-000.31,0000.04,-000.07,0000.53,0000.53,0000.66,16.2,23.1,,00.0,0653.9,30.9
2021-02-09T13:25:00Z,00000200,01000000,0001.29,0000.79,0000.27,0000.02,0000.09,0000.28,0000.73,0000.50,0000.45,16.3,23.1,,00.0,0653.8,31.0
2021-02-09T13:26:00Z,00000200,01000000,0001.13,0001.02,0000.12,0000.09,0000.21,0000.00,0000.35,0000.43,-000.05,16.3,23.2,,00.0,0653.9,31.0
2021-02-09T13:27:00Z,00000200,01000000,0000.94,0000.63,0000.27,0000.16,0000.21,-000.03,0000.17,0000.27,0000.17,16.4,23.2,,00.0,0653.9,31.0
2021-02-09T13:28:00Z,00000200,01000000,0001.46,0000.76,0000.03,-000.12,0000.28,0000.41,0000.35,-000.24,0000.49,16.4,23.2,,00.0,0653.9,30.9
2021-02-09T13:29:00Z,00000200,01000000,0001.32,0000.49,0000.26,-000.02,0000.10,0000.09,-000.54,0000.03,-000.59,16.4,23.2,,00.0,0654.0,30.9
2021-02-09T13:30:00Z,00000200,01000000,0000.59,0000.76,0000.16,0000.14,0000.10,0000.26,-000.52,-000.36,-000.25,16.3,23.1,,00.0,0654.1,30.9
2021-02-09T13:31:00Z,00000200,01000000,0000.89,0000.52,0000.21,0000.00,0000.29,0000.01,-000.33,-000.56,-000.68,16.2,23.1,,00.0,0654.2,30.9
2021-02-09T13:32:00Z,00000200,01000000,0000.97,0000.94,0000.59,0000.54,0000.40,0000.28,-000.37,-000.17,-000.14,16.2,23.1,,00.0,0654.3,30.9
2021-02-09T13:33:00Z,00000200,01000000,0001.19,0000.83,-000.03,0000.56,0000.09,0000.17,-000.07,-000.01,-000.08,16.1,23.1,,00.0,0654.4,30.9
2021-02-09T13:34:00Z,00000200,01000000,0001.09,0000.73,0000.01,0000.45,0000.47,0000.38,-000.07,-000.34,0000.38,16.1,23.0,,00.0,0654.2,30.9
2021-02-09T13:35:00Z,00000200,01000000,0001.13,0000.75,0000.12,0000.04,0000.30,0000.11,0001.62,0001.39,0000.59,16.0,23.0,,00.0,0654.1,30.9
2021-02-09T13:36:00Z,00000200,01000000,0001.22,0000.68,0000.08,-000.41,0000.31,-000.13,0001.09,0000.91,0000.76,16.0,23.0,,00.0,0654.0,30.9
2021-02-09T13:37:00Z,00000200,01000000,0001.04,0000.39,-000.14,0000.20,0000.35,0000.24,0000.93,0001.02,0000.89,16.1,23.0,,00.0,0653.9,30.9
2021-02-09T13:38:00Z,00000200,01000000,0001.20,0000.39,0000.13,0000.34,0000.42,0000.05,0000.45,0000.55,0000.29,16.1,23.0,,00.0,0653.9,30.9
2021-02-09T13:39:00Z,00000200,01000000,0000.31,0000.60,0000.04,-000.06,0000.31,0000.10,0000.72,0000.50,0000.47,16.2,23.1,,00.0,0653.8,30.9
2021-02-09T13:40:00Z,00000200,01000000,0000.97,0000.59,0000.09,0000.24,0000.51,0000.18,0000.77,0000.55,0000.36,16.3,23.1,,00.0,0653.9,30.9
2021-02-09T13:41:00Z,00000200,01000000,0000.99,0000.67,-000.01,0000.14,0000.24,0000.05,0000.14,0000.19,0000.24,16.3,23.1,,00.0,0653.9,31.0
2021-02-09T13:42:00Z,00000200,01000000,0001.44,0000.66,0000.27,0000.26,0000.02,0000.12,0000.03,0000.11,-000.18,16.4,23.2,,00.0,0653.9,31.0
2021-02-09T13:43:00Z,00000200,01000000,0001.54,0000.64,0000.21,0000.46,0000.19,0000.11,0000.18,-000.12,-000.10,16.4,23.2,,00.0,0653.9,30.9
2021-02-09T13:44:00Z,00000200,01000000,0001.21,0000.37,0000.09,0000.20,0000.26,0000.11,-000.65,-000.44,-000.23,16.4,23.2,,00.0,0654.0,30.9
2021-02-09T13:45:00Z,00000200,01000000,0001.70,0000.70,0000.05,0000.42,0000.15,0000.08,0000.20,0000.35,0000.23,16.3,23.1,,00.0,0653.9,30.9
2021-02-09T13:46:00Z,00000200,01000000,0000.98,0000.99,0000.22,-000.15,0000.30,0000.17,0000.46,0000.53,0000.34,16.2,23.1,,00.0,0653.8,30.9
2021-02-09T13:47:00Z,00000200,01000000,0001.61,0000.85,0000.46,0000.55,0000.19,0000.12,0000.81,0000.54,0000.50,16.2,23.1,,00.0,0653.8,30.9
2021-02-09T13:48:00Z,00000200,01000000,0001.12,0000.63,0000.38,0000.51,0000.18,0000.12,0000.73,0000.92,0000.15,16.1,23.0,,00.0,0653.8,30.9
2021-02-09T13:49:00Z,00000200,01000000,0001.06,0000.46,-000.18,-000.33,0000.14,-000.21,0000.57,0000.19,0000.90,16.0,23.0,,00.0,0653.7,30.9
2021-02-09T13:50:00Z,00000200,01000000,0000.37,0000.21,0000.14,-000.50,0000.05,-000.09,0001.18,0000.92,0000.57,16.0,23.0,,00.0,0653.7,30.9
2021-02-09T13:51:00Z,00000200,01000000,0000.32,0000.31,0000.29,0000.52,0000.46,0000.11,0000.47,0000.85,0000.51,16.0,23.0,,00.0,0653.6,30.9
2021-02-09T13:52:00Z,00000200,01000000,0001.11,0000.45,0000.32,-000.10,0000.13,0000.17,0000.95,0000.19,0000.35,16.1,23.0,,00.0,0653.6,30.9
2021-02-09T13:53:00Z,00000200,01000000,0000.50,0000.43,-000.07,0000.37,0000.04,0000.08,0000.00,0000.72,0000.18,16.2,23.0,,00.0,0653.7,30.9
2021-02-09T13:54:00Z,00000200,01000000,0000.84,0000.26,-000.27,0000.21,0000.15,0000.14,0000.40,-000.04,-000.18,16.2,23.1,,00.0,0653.7,30.9
2021-02-09T13:55:00Z,00000200,01000000,0000.49,0000.74,0000.06,0000.33,0000.41,0000.11,0000.12,0000.32,0000.42,16.3,23.1,,00.0,0653.7,30.9
2021-02-09T13:56:00Z,00000200,01000000,0000.34,0000.51,0000.22,0000.49,0000.29,0000.08,-000.01,-000.07,-000.26,16.4,23.1,,00.0,0653.7,31.0
2021-02-09T13:57:00Z,00000200,41000000,,,,,,,-000.47,-000.37,-000.36,16.5,23.2,,00.0,0653.7,31.0
2021-02-09T13:58:00Z,00000200,61000000,,,,,,,-000.48,-000.57,0000.27,16.1,23.3,,00.0,0652.8,31.0
2021-02-09T13:59:00Z,00000200,21000000,,,,,,,-000.36,0000.09,-000.45,16.1,23.4,,00.0,0652.8,30.9
